Weather History for Alpine, TX

Change the Weather History Date:

Sunday, February 3, 2013

  Actual Average (KMRF) Record (KMRF)
Temperature  
Mean Temperature 46 °F -  
Max Temperature 63 °F 57 °F 69 °F (2008)
Min Temperature 29 °F 27 °F 1 °F (2011)
Degree Days  
Heating Degree Days 19    
Moisture  
Dew Point 24 °F    
Average Humidity 44    
Maximum Humidity 74    
Minimum Humidity 21    
Precipitation  
Precipitation 0.00 in - - ()
Sea Level Pressure  
Sea Level Pressure 30.22 in    
Wind  
Wind Speed 6 mph (South)    
Max Wind Speed 17 mph    
Max Gust Speed 23 mph    
Visibility 10 miles    
Events      
Averages and records for this station are not official NWS values.
T = Trace of Precipitation, MM = Missing Value Source: NWS Daily Summary

Daily Weather History Graph

Daily Weather History Graph

Search for Another Location

Airport:

Trip Planner

Search our weather history database for the weather conditions in past years. The results will help you decide how hot, cold, wet, or windy it might be!

Date:

Astronomy

Feb. 03, 2013 Rise Set
Actual Time 7:44 AM CST 6:33 PM CST
Civil Twilight 7:19 AM CST 6:58 PM CST
Nautical Twilight 6:50 AM CST 7:27 PM CST
Astronomical Twilight 6:22 AM CST 7:55 PM CST
Moon 1:13 AM CST (2/3) 12:14 PM CST (2/3)
Length of Visible Light 11h 39m
Length of Day
10h 49m
Waning Gibbous, 48% of the Moon is Illuminated
Feb 3
Waning Gibbous
Feb 10
New
Feb 17
First Quarter
Feb 25
Full
Mar 4
Last Quarter

Hourly Weather History & Observations

Time (CST) Temp. Windchill Dew Point Humidity Pressure Visibility Wind Dir Wind Speed Gust Speed Precip Events Conditions
12:15 AM 37.4 °F - 22.6 °F 55% 30.41 in 10.0 mi Calm Calm - N/A   Clear
12:35 AM 35.8 °F - 23.0 °F 60% 30.41 in 10.0 mi Calm Calm - N/A   Clear
12:55 AM 37.2 °F - 23.0 °F 56% 30.40 in 10.0 mi Calm Calm - N/A   Clear
1:15 AM 35.2 °F 32.4 °F 22.1 °F 59% 30.40 in 10.0 mi South 3.5 mph - N/A   Clear
1:35 AM 32.9 °F 29.8 °F 22.1 °F 65% 30.40 in 10.0 mi South 3.5 mph - N/A   Clear
1:55 AM 31.8 °F 27.3 °F 22.1 °F 67% 30.39 in 10.0 mi SSW 4.6 mph - N/A   Clear
2:15 AM 31.1 °F 25.4 °F 22.3 °F 70% 30.39 in 10.0 mi SSW 5.8 mph - N/A   Clear
2:35 AM 31.1 °F 25.4 °F 22.5 °F 70% 30.38 in 10.0 mi SSW 5.8 mph - N/A   Clear
2:55 AM 30.6 °F 24.7 °F 22.1 °F 71% 30.36 in 10.0 mi South 5.8 mph - N/A   Clear
3:15 AM 30.7 °F 27.3 °F 22.3 °F 71% 30.36 in 10.0 mi SSW 3.5 mph - N/A   Clear
3:55 AM 30.4 °F 25.6 °F 22.1 °F 71% 30.35 in 10.0 mi South 4.6 mph - N/A   Clear
4:15 AM 30.9 °F 26.2 °F 22.3 °F 70% 30.35 in 10.0 mi South 4.6 mph - N/A   Clear
4:35 AM 29.8 °F 23.9 °F 21.9 °F 72% 30.34 in 10.0 mi SSW 5.8 mph - N/A   Clear
4:55 AM 29.7 °F 22.8 °F 22.3 °F 74% 30.33 in 10.0 mi SW 6.9 mph - N/A   Clear
5:15 AM 32.9 °F 26.7 °F 23.9 °F 69% 30.32 in 10.0 mi SW 6.9 mph - N/A   Clear
5:35 AM 34.7 °F 28.8 °F 24.6 °F 67% 30.32 in 10.0 mi SW 6.9 mph - N/A   Clear
5:55 AM 32.5 °F 28.1 °F 24.3 °F 72% 30.32 in 10.0 mi South 4.6 mph - N/A   Clear
6:15 AM 31.5 °F 24.9 °F 23.2 °F 71% 30.32 in 10.0 mi South 6.9 mph - N/A   Clear
6:35 AM 31.8 °F 27.3 °F 23.5 °F 71% 30.32 in 10.0 mi South 4.6 mph - N/A   Clear
6:55 AM 33.6 °F 28.4 °F 24.3 °F 69% 30.32 in 10.0 mi South 5.8 mph - N/A   Clear
7:15 AM 33.4 °F 28.1 °F 24.1 °F 69% 30.32 in 10.0 mi SSW 5.8 mph - N/A   Clear
7:35 AM 32.9 °F 28.5 °F 24.3 °F 71% 30.32 in 10.0 mi South 4.6 mph - N/A   Clear
7:55 AM 34.5 °F 31.6 °F 24.4 °F 67% 30.32 in 10.0 mi SSE 3.5 mph - N/A   Clear
8:15 AM 34.2 °F 31.2 °F 24.6 °F 68% 30.32 in 10.0 mi South 3.5 mph - N/A   Clear
8:35 AM 36.3 °F 30.8 °F 25.2 °F 64% 30.32 in 10.0 mi SSW 6.9 mph - N/A   Clear
8:55 AM 39.4 °F 36.1 °F 26.1 °F 59% 30.32 in 10.0 mi SSW 4.6 mph - N/A   Clear
9:15 AM 42.8 °F - 27.3 °F 54% 30.32 in 10.0 mi Calm Calm - N/A   Clear
9:35 AM 48.4 °F - 28.4 °F 46% 30.31 in 10.0 mi Calm Calm - N/A   Clear
9:55 AM 49.8 °F - 29.1 °F 45% 30.31 in 10.0 mi Calm Calm - N/A   Clear
10:15 AM 52.0 °F - 28.0 °F 40% 30.30 in 10.0 mi Calm Calm - N/A   Scattered Clouds
10:35 AM 53.1 °F - 27.5 °F 37% 30.30 in 10.0 mi SSW 3.5 mph - N/A   Scattered Clouds
10:55 AM 55.4 °F - 27.5 °F 34% 30.30 in 10.0 mi South 16.1 mph - N/A   Scattered Clouds
11:15 AM 57.4 °F - 27.3 °F 32% 30.29 in 10.0 mi South 8.1 mph - N/A   Clear
11:35 AM 59.0 °F - 26.2 °F 29% 30.28 in 10.0 mi SSE 15.0 mph - N/A   Clear
11:55 AM 60.4 °F - 24.8 °F 26% 30.27 in 10.0 mi SSE 13.8 mph - N/A   Clear
12:15 PM 61.3 °F - 25.0 °F 25% 30.25 in 10.0 mi South 12.7 mph 19.6 mph N/A   Clear
12:35 PM 61.0 °F - 24.3 °F 25% 30.24 in 10.0 mi SE 9.2 mph 16.1 mph N/A   Clear
12:55 PM 61.5 °F - 23.9 °F 24% 30.23 in 10.0 mi SSE 11.5 mph 17.3 mph N/A   Clear
1:15 PM 61.7 °F - 24.4 °F 24% 30.20 in 10.0 mi SSE 15.0 mph - N/A   Clear
1:35 PM 63.7 °F - 24.4 °F 22% 30.18 in 10.0 mi SSE 15.0 mph 19.6 mph N/A   Clear
1:55 PM 63.9 °F - 23.7 °F 22% 30.16 in 10.0 mi SSE 17.3 mph 23.0 mph N/A   Clear
2:15 PM 62.2 °F - 23.7 °F 23% 30.14 in 10.0 mi SSE 17.3 mph - N/A   Scattered Clouds
2:35 PM 62.2 °F - 23.4 °F 23% 30.13 in 10.0 mi SSE 16.1 mph 21.9 mph N/A   Mostly Cloudy
2:55 PM 62.6 °F - 22.6 °F 22% 30.11 in 10.0 mi SSE 15.0 mph - N/A   Overcast
3:15 PM 61.9 °F - 21.9 °F 22% 30.12 in 10.0 mi SSE 12.7 mph 19.6 mph N/A   Overcast
3:35 PM 63.0 °F - 21.9 °F 21% 30.12 in 10.0 mi South 15.0 mph 18.4 mph N/A   Overcast
3:55 PM 62.1 °F - 21.2 °F 21% 30.12 in 10.0 mi South 16.1 mph 21.9 mph N/A   Overcast
4:15 PM 60.6 °F - 22.1 °F 23% 30.11 in 10.0 mi South 12.7 mph 23.0 mph N/A   Overcast
4:35 PM 60.1 °F - 22.6 °F 24% 30.11 in 10.0 mi South 16.1 mph - N/A   Overcast
4:55 PM 59.2 °F - 23.5 °F 25% 30.09 in 10.0 mi South 10.4 mph 17.3 mph N/A   Mostly Cloudy
5:15 PM 58.8 °F - 23.9 °F 26% 30.09 in 10.0 mi South 6.9 mph - N/A   Scattered Clouds
5:35 PM 58.5 °F - 24.1 °F 27% 30.07 in 10.0 mi South 6.9 mph - N/A   Mostly Cloudy
5:55 PM 58.6 °F - 24.1 °F 27% 30.08 in 10.0 mi South 9.2 mph - N/A   Mostly Cloudy
6:15 PM 58.5 °F - 24.3 °F 27% 30.08 in 10.0 mi South 10.4 mph - N/A   Scattered Clouds
6:55 PM 56.8 °F - 25.0 °F 29% 30.07 in 10.0 mi South 9.2 mph - N/A   Clear
7:15 PM 56.8 °F - 25.0 °F 29% 30.08 in 10.0 mi SSW 10.4 mph - N/A   Scattered Clouds
7:35 PM 57.7 °F - 24.8 °F 28% 30.09 in 10.0 mi South 9.2 mph - N/A   Scattered Clouds
7:55 PM 57.4 °F - 25.2 °F 29% 30.07 in 10.0 mi SSE 11.5 mph - N/A   Mostly Cloudy
8:15 PM 57.7 °F - 25.5 °F 29% 30.07 in 10.0 mi SSW 8.1 mph - N/A   Scattered Clouds
8:35 PM 56.5 °F - 25.7 °F 31% 30.07 in 10.0 mi SSW 8.1 mph - N/A   Scattered Clouds
8:55 PM 54.9 °F - 26.1 °F 33% 30.07 in 10.0 mi SSW 10.4 mph - N/A   Clear
9:15 PM 54.9 °F - 26.2 °F 33% 30.07 in 10.0 mi SSW 10.4 mph - N/A   Clear
9:35 PM 55.8 °F - 26.2 °F 32% 30.07 in 10.0 mi SSW 11.5 mph - N/A   Scattered Clouds
9:55 PM 55.6 °F - 26.2 °F 32% 30.07 in 10.0 mi SW 12.7 mph - N/A   Scattered Clouds
10:15 PM 55.6 °F - 26.1 °F 32% 30.08 in 10.0 mi SW 10.4 mph - N/A   Scattered Clouds
10:35 PM 54.7 °F - 26.4 °F 34% 30.08 in 10.0 mi SW 11.5 mph - N/A   Scattered Clouds
10:55 PM 54.3 °F - 26.4 °F 34% 30.08 in 10.0 mi SW 8.1 mph - N/A   Scattered Clouds
11:15 PM 54.5 °F - 26.6 °F 34% 30.08 in 10.0 mi SW 9.2 mph - N/A   Mostly Cloudy
11:35 PM 55.4 °F - 26.6 °F 33% 30.08 in 10.0 mi SW 8.1 mph - N/A   Overcast
11:55 PM 54.9 °F - 26.6 °F 34% 30.08 in 10.0 mi SW 10.4 mph - N/A   Mostly Cloudy